TimeEST,TemperatureF,Dew PointF,Humidity,Sea Level PressureIn,VisibilityMPH,Wind Direction,Wind SpeedMPH,Gust SpeedMPH,PrecipitationIn,Events,Conditions,WindDirDegrees,DateUTC
12:56 AM,23.0,17.1,78,30.32,10.0,Calm,Calm,-,N/A,,Clear,0,2014-01-25 05:56:00
1:56 AM,23.0,19.9,88,30.30,10.0,NW,3.5,-,N/A,,Clear,320,2014-01-25 06:56:00
2:56 AM,21.0,16.0,81,30.28,10.0,Calm,Calm,-,N/A,,Clear,0,2014-01-25 07:56:00
3:56 AM,26.1,19.9,78,30.23,10.0,Calm,Calm,-,N/A,,Overcast,0,2014-01-25 08:56:00
4:56 AM,26.1,19.0,75,30.22,10.0,Calm,Calm,-,N/A,,Mostly Cloudy,0,2014-01-25 09:56:00
5:56 AM,24.1,18.0,77,30.20,10.0,West,3.5,-,N/A,,Clear,270,2014-01-25 10:56:00
6:56 AM,24.1,19.9,84,30.19,10.0,SW,3.5,-,N/A,,Clear,220,2014-01-25 11:56:00
7:56 AM,24.1,18.0,77,30.17,10.0,WSW,3.5,-,N/A,,Clear,250,2014-01-25 12:56:00
8:56 AM,35.1,23.0,61,30.16,10.0,WSW,4.6,-,N/A,,Clear,240,2014-01-25 13:56:00
9:56 AM,43.0,19.9,40,30.13,10.0,WSW,21.9,27.6,N/A,,Clear,250,2014-01-25 14:56:00
10:56 AM,46.9,19.0,33,30.10,10.0,WSW,16.1,-,N/A,,Clear,250,2014-01-25 15:56:00
11:56 AM,50.0,23.0,35,30.03,10.0,WSW,17.3,27.6,N/A,,Clear,250,2014-01-25 16:56:00
12:56 PM,53.1,24.1,32,29.97,10.0,West,21.9,29.9,N/A,,Clear,260,2014-01-25 17:56:00
1:56 PM,55.0,24.1,30,29.91,10.0,West,25.3,34.5,N/A,,Clear,260,2014-01-25 18:56:00
2:56 PM,57.9,26.1,30,29.88,10.0,West,19.6,34.5,N/A,,Clear,260,2014-01-25 19:56:00
3:56 PM,59.0,28.9,32,29.86,10.0,West,25.3,35.7,N/A,,Clear,260,2014-01-25 20:56:00
4:56 PM,57.0,33.1,40,29.85,10.0,West,21.9,31.1,N/A,,Partly Cloudy,260,2014-01-25 21:56:00
5:56 PM,54.0,35.1,49,29.87,10.0,WSW,19.6,-,N/A,,Scattered Clouds,250,2014-01-25 22:56:00
6:56 PM,53.1,37.9,57,29.89,10.0,West,20.7,33.4,N/A,,Clear,260,2014-01-25 23:56:00
7:56 PM,52.0,39.9,63,29.92,10.0,West,19.6,27.6,N/A,,Clear,260,2014-01-26 00:56:00
8:56 PM,51.1,39.9,66,29.95,10.0,West,13.8,-,N/A,,Clear,260,2014-01-26 01:56:00
9:56 PM,50.0,39.9,68,29.97,10.0,West,11.5,-,N/A,,Clear,270,2014-01-26 02:56:00
10:56 PM,48.9,39.9,71,30.00,10.0,West,9.2,-,N/A,,Clear,280,2014-01-26 03:56:00
11:56 PM,46.0,39.9,79,30.00,10.0,West,5.8,-,N/A,,Clear,270,2014-01-26 04:56:00